Weather in Long Beach

United States     33°48′22″N   118°07′10″W
temp.,
°C
wind,
m/s
gust,
m/s
humid.,
%
clouds,
%
prec.,
mm/h
press.,
hPa
HPBL,
m
16 may, sun
sun1623:00+16sw4470100 0.1 1014827
02:00+15sw3377100 0.3 1014618
05:00+15sw3377100 0.5 1014619
08:00+15sw3375100 0.2 1015646
11:00+16sw3371100 0.4 1016787
14:00+16sw4468100 0.1 1016878
17:00+17sw436565 0.1 1015932
20:00+16sw337033 0.0 1015603
17 may, mon
mon1723:00+16sw337352 0.0 1016606
02:00+16wsw3376100 0.1 1015467
05:00+15sw3378100 0.1 1016482
08:00+16sw227531 0.0 1016565
11:00+17sw436773 0.0 1016878
14:00+18sw536313 0.0 1016743
17:00+18wsw54654 0.0 1015716
20:00+16ssw43747 0.0 1015470
18 may, tue
tue1823:00+16ssw447870 0.0 1016585
02:00+16sse3474100 0.0 1015753
05:00+16sse347399 0.0 1014735
08:00+17s227062 0.0 1015712
11:00+19ssw42600 0.0 1014716
14:00+19sw536019 0.0 1012594
17:00+19sw436319 0.0 1011440
20:00+18s44670 0.0 1011403
19 may, wed
wed1923:00+17sse34730 0.0 1012367
02:00+17sse34730 0.0 1010282
05:00+16sse23790 0.0 1011311
08:00+17sse22751 0.0 1012430
11:00+20ssw43620 0.0 1011679
14:00+20ssw445911 0.0 1010617
17:00+20sw436019 0.0 1009523
20:00+18ssw44680 0.0 1010458
20 may, thu
thu2023:00+17s56706 0.0 1011616
02:00+16sse567310 0.0 1011660
05:00+15se687215 0.0 1011624
08:00+16se676652 0.0 1011721
11:00+19sse565515 0.0 10111142
14:00+19s55550 0.0 1010906
17:00+18sw54590 0.0 1009885
20:00+18sw44510 0.0 1010681